Location: Moscow
(55.7500°N, 37.5830°E)
Time: 03:53:32
(UTC+03:00)

Vanguard 2 - Visible Passes

Search period start: 30 November 2021 00:00
Search period end: 10 December 2021 00:00
Orbit: 554 x 2936 km, 32.9° (Epoch: 29 November)

Date Brightness Start Highest point End Pass type
(mag) Time Alt. Az. Time Alt. Az. Time Alt. Az.
30 Nov 11.1 18:08:53 10° SW 18:14:07 16° S 18:20:42 10° SSE visible
30 Nov 11.6 20:20:13 10° SSW 20:22:13 10° SSW 20:24:20 10° SSW visible
01 Dec 11.2 18:26:55 10° SW 18:31:20 14° S 18:36:40 10° SSE visible
02 Dec 11.1 16:37:33 10° SSW 16:40:55 13° S 16:44:54 10° SSE visible
02 Dec 11.4 18:45:49 10° SSW 18:48:34 11° SSW 18:51:38 10° S visible
03 Dec 11.1 16:55:21 10° SSW 16:58:07 12° S 17:01:18 10° SSE visible
04 Dec 11.2 17:14:16 10° SSW 17:15:21 10° S 17:16:29 10° S visible
